Wind_Speed
9 10 10 7 5 4 4 5 7 8 9 9 9 8 7 7 6 5 4 3 3 3 4 5 5 6 7 8 9 10 11 11 12 13 13 13 14 14 14 14 15 14 14 13 13 12 11 11 11 11 11 10 9 9 10 10 11 12 14 17 19 20 19 17 15 13 12 14 14 12 12 13 13 13 13 13 13 13 13 13 13 14 14 14 14 14 14 14
6 7 7 6 5 5 5 6 8 8 8 8 7 6 5 5 4 4 4 5 5 6 7 8 9 10 10 11 12 13 13 14 14 14 15 15 15 16 16 15 15 15 15 15 14 14 13 12 13 13 13 12 12 11 11 12 12 13 15 17 18 19 18 16 14 14 14 15 14 13 14 14 15 15 14 14 13 13 13 13 14 14 15 15 15 14 14 15
5 6 6 6 6 7 7 7 7 7 6 5 5 5 5 5 5 6 6 7 8 9 10 11 12 13 13 14 15 16 16 16 16 16 16 15 15 15 14 14 14 14 14 15 16 15 15 15 15 15 15 15 14 14 13 14 14 15 16 16 18 19 18 17 16 16 15 15 15 15 15 16 16 16 15 15 14 14 13 13 14 15 16 16 15 16 17 18
5 6 7 7 8 8 8 6 5 4 4 4 4 5 6 7 8 8 9 10 11 12 13 14 15 15 16 16 17 17 17 17 15 14 13 12 11 12 12 12 12 13 13 14 14 15 15 15 16 16 16 16 15 15 14 15 15 16 16 17 18 19 18 17 17 16 15 14 15 15 15 16 17 17 18 17 17 16 15 14 14 15 16 16 17 18 20 20
6 7 8 8 8 7 6 4 3 2 3 4 5 6 7 9 10 11 13 14 14 15 16 16 16 16 16 16 16 16 15 13 10 9 9 9 10 11 12 12 11 11 12 12 12 13 13 13 13 13 13 14 14 14 15 15 15 16 17 17 17 17 18 18 18 17 17 16 16 17 17 18 19 19 19 18 18 18 16 16 16 16 17 19 20 21 21 21
7 8 9 8 7 5 3 1 1 3 4 5 6 8 9 11 12 14 15 16 16 15 15 14 14 14 13 13 12 12 11 9 8 8 9 8 9 9 10 10 10 10 10 10 10 10 10 10 10 10 11 11 12 13 14 14 14 15 17 17 17 17 18 19 19 19 18 18 18 18 19 19 19 20 20 19 19 18 18 18 18 18 20 21 22 22 22 22
8 8 7 6 4 2 0 2 4 5 7 8 9 11 12 13 14 15 15 14 12 11 10 10 10 10 9 9 9 9 9 9 9 9 8 7 7 8 9 9 9 9 9 9 9 9 9 9 10 10 10 10 11 12 13 13 13 15 17 18 17 18 19 19 19 19 19 19 19 19 19 19 19 19 19 19 19 19 19 19 19 21 22 23 23 24 23 23
7 6 5 3 2 2 3 5 7 8 10 11 12 14 15 16 15 13 11 9 8 7 7 7 8 8 8 8 8 8 8 9 8 7 7 7 8 9 9 9 9 9 9 9 9 9 9 9 10 10 10 11 11 11 11 12 13 15 16 17 17 18 18 19 19 19 20 20 20 19 19 18 18 18 18 18 18 19 19 20 21 22 23 23 24 24 24 24
6 4 3 3 3 4 6 7 9 11 12 14 15 15 15 14 12 9 7 7 7 6 7 7 8 8 7 7 6 7 7 6 6 7 8 9 9 10 10 9 9 10 10 9 9 9 9 9 9 10 10 10 10 11 11 11 13 14 15 16 16 17 18 18 18 19 19 19 19 19 19 18 17 18 18 18 18 18 19 20 21 22 23 24 24 25 25 24
4 3 3 4 6 7 8 10 12 14 14 15 15 14 12 9 7 6 6 7 6 6 7 7 8 7 7 6 5 6 6 5 6 8 10 9 10 10 10 9 9 9 9 9 9 8 8 8 9 9 10 10 11 11 12 12 13 14 14 15 15 16 17 17 18 18 18 19 20 20 20 19 19 19 20 20 20 20 20 21 22 23 23 23 23 23 23 23
3 4 6 7 8 9 11 13 14 15 15 14 13 10 7 5 4 5 7 7 6 7 7 7 7 7 7 6 6 7 7 7 8 10 11 10 10 10 10 9 8 8 8 8 8 8 8 8 8 8 8 9 10 11 12 12 13 13 14 14 15 16 17 18 18 19 19 19 19 20 21 21 21 21 21 20 19 19 19 19 20 20 20 20 20 20 20 21
5 7 8 10 11 12 13 13 13 13 12 11 9 6 3 3 5 6 7 7 7 7 6 6 7 7 7 8 8 7 8 10 10 10 11 10 9 9 9 9 8 8 7 8 8 8 8 8 8 8 8 8 9 9 10 11 11 11 12 13 14 15 16 17 18 18 18 18 18 19 20 20 19 18 17 17 17 16 16 16 17 17 17 17 18 18 18 20
7 9 11 12 12 12 11 11 10 9 8 7 5 2 1 3 6 7 8 7 7 7 6 6 6 7 8 8 8 8 9 13 11 8 8 8 8 9 8 8 8 7 7 7 7 7 7 8 8 8 8 8 9 9 9 10 10 11 12 12 13 14 15 17 17 17 17 16 17 17 16 16 17 17 16 16 15 15 15 15 16 16 17 17 18 18 18 19
8 10 11 11 10 8 8 7 6 6 4 2 1 1 3 5 8 9 9 7 6 6 5 5 6 7 8 8 8 8 10 13 11 8 8 9 10 10 9 8 8 7 7 7 7 7 6 7 7 7 7 7 7 8 9 10 10 11 11 12 13 11 13 16 15 15 16 15 15 16 15 16 18 17 15 16 16 16 17 18 18 18 18 18 18 18 17 18
7 8 8 7 6 5 4 4 3 3 2 1 1 3 5 7 9 10 9 7 6 5 5 5 7 8 8 8 8 9 11 12 12 11 10 10 10 10 9 8 8 8 7 7 7 7 6 6 6 6 6 6 7 7 8 9 10 11 8 9 12 9 11 15 14 15 15 15 16 15 14 16 17 16 17 18 19 20 20 20 20 20 19 18 17 16 16 15
5 5 5 5 4 3 3 3 2 3 3 3 4 5 7 9 10 9 8 6 4 4 5 6 8 8 7 7 7 9 10 10 10 10 10 9 8 9 9 9 9 8 8 8 8 7 7 7 6 6 6 6 6 6 7 7 8 11 8 8 11 11 12 13 13 14 15 15 16 15 15 17 19 19 20 20 20 20 20 19 19 18 18 17 16 16 15 14
3 3 4 4 4 4 3 3 3 3 3 5 6 7 8 9 9 8 6 5 4 5 5 6 8 8 6 7 7 8 8 7 8 9 8 8 8 8 8 9 9 9 9 9 8 8 8 8 7 7 7 6 6 5 5 6 6 8 9 9 11 12 11 11 13 15 15 15 16 16 18 20 20 20 20 20 20 20 19 19 18 18 17 17 16 16 15 16
2 2 3 3 4 5 5 5 4 3 4 5 7 8 8 8 7 5 4 3 4 4 4 6 7 6 5 7 8 7 6 6 6 7 7 8 8 9 9 10 10 9 9 9 9 9 9 8 8 7 7 6 5 4 5 7 6 7 9 9 9 11 11 12 13 15 15 15 16 17 18 19 19 20 21 21 21 20 19 19 19 18 18 18 18 17 18 18
2 2 3 4 5 5 6 6 6 5 4 5 5 6 6 5 4 3 3 2 3 3 3 5 6 5 6 8 8 8 8 7 7 7 8 8 9 9 10 10 10 9 9 9 9 9 8 8 7 7 7 5 5 5 6 7 7 8 8 8 9 10 12 14 15 16 17 17 18 18 18 19 20 21 22 22 22 21 20 19 19 18 18 18 18 18 18 17
1 2 3 4 5 6 6 6 6 5 4 4 4 4 4 3 2 2 1 0 2 4 4 5 6 6 7 9 10 10 9 7 6 7 8 9 9 10 10 9 9 9 9 8 8 8 7 7 7 6 6 5 5 5 5 6 6 7 8 9 11 11 12 15 16 17 17 17 17 17 20 21 20 21 22 21 20 19 18 17 16 16 16 16 16 16 15 15
2 3 4 5 7 7 7 7 6 5 5 4 4 4 3 2 1 1 0 1 1 3 4 5 7 7 8 10 10 10 9 7 7 9 8 9 10 9 9 9 8 9 8 7 7 7 7 7 6 4 4 4 4 5 5 5 6 8 9 10 11 11 13 16 15 15 15 17 18 19 21 20 18 20 19 17 16 15 14 14 13 14 14 14 14 14 14 15
2 3 5 6 8 9 9 8 7 6 5 5 4 4 3 2 2 1 1 0 1 3 6 8 9 9 10 10 9 9 9 8 10 10 9 9 9 8 8 8 8 8 8 7 6 7 8 6 4 4 4 4 4 5 6 6 8 9 9 9 9 11 14 14 13 14 14 17 20 20 22 21 18 17 14 12 12 12 12 12 12 12 12 12 12 12 13 13
2 4 5 7 9 10 9 9 8 6 5 5 4 4 3 3 3 2 1 0 1 5 9 10 10 9 10 10 9 9 7 7 8 8 8 8 7 7 7 8 7 8 7 7 7 6 6 5 4 5 5 6 7 8 8 9 9 8 8 8 8 11 13 12 14 16 15 17 19 20 24 22 14 10 9 11 12 11 12 12 11 12 11 11 12 12 13 12
3 3 5 7 9 10 9 8 7 6 5 5 5 4 4 4 3 2 1 0 1 6 9 10 9 9 10 10 9 10 6 7 9 8 8 7 6 7 8 8 8 8 7 8 8 6 4 4 5 5 6 8 9 9 9 8 8 9 9 8 10 13 13 13 16 17 16 16 16 20 23 15 8 10 12 13 13 11 12 12 11 12 12 12 13 13 12 13
3 3 5 7 9 9 8 7 6 5 5 5 4 5 4 3 3 2 1 1 2 6 9 10 9 9 11 10 10 10 7 8 11 9 9 8 8 9 9 8 9 9 9 9 8 7 6 5 5 6 7 8 8 8 8 7 7 8 9 10 11 12 12 14 15 15 14 12 14 19 14 7 12 15 13 13 12 11 13 12 10 11 12 12 12 12 12 13
4 3 5 7 9 9 8 7 6 5 5 5 4 5 4 3 3 2 3 3 3 6 9 10 9 9 11 10 11 10 7 10 12 10 10 10 10 10 9 9 10 9 9 9 8 7 6 6 6 7 8 8 9 8 8 8 7 6 9 11 11 12 14 14 13 12 10 9 15 16 7 8 19 15 9 13 12 10 12 11 10 11 12 12 11 12 13 13
5 4 5 7 9 9 8 7 6 6 5 5 4 4 3 3 2 2 3 3 3 6 9 9 9 10 11 11 12 12 9 10 12 11 11 10 10 10 9 10 10 9 9 8 6 6 7 7 7 8 8 8 8 8 8 8 6 6 9 12 12 13 14 12 12 11 11 14 16 14 8 10 16 13 11 13 11 10 12 11 11 12 12 12 12 12 14 14
5 4 5 8 9 9 8 6 6 6 5 4 4 3 2 2 1 1 1 1 2 6 7 9 10 10 12 13 13 13 11 10 11 11 10 10 9 10 9 9 9 9 9 7 4 5 7 7 7 7 7 7 8 8 8 9 8 9 11 12 13 13 13 13 11 11 14 14 9 8 9 7 12 15 13 10 10 10 10 11 11 12 12 13 13 13 14 15
6 5 6 8 10 9 7 6 5 5 5 4 4 2 2 1 1 1 1 1 3 6 7 9 10 11 13 13 13 13 11 10 9 9 9 9 9 10 9 9 9 9 8 8 6 5 6 6 6 7 7 8 9 9 9 9 9 10 11 12 12 13 13 12 10 11 14 10 4 6 7 3 11 17 10 9 12 12 11 11 11 12 13 13 13 14 15 16
6 6 7 8 9 8 6 6 6 5 5 4 2 1 1 1 1 1 0 1 3 4 7 8 8 11 12 12 12 11 10 10 10 10 9 9 9 11 10 10 11 9 7 9 8 5 6 6 6 8 8 9 9 8 9 9 9 11 12 13 14 13 13 11 11 11 9 5 3 5 5 1 7 12 9 11 15 15 15 13 12 13 14 14 15 15 16 17
6 6 7 9 9 7 6 6 6 5 3 2 1 0 1 1 2 1 1 1 2 3 7 7 7 10 10 10 10 9 10 11 11 10 10 10 11 13 12 11 12 9 7 10 8 6 7 7 6 9 10 10 9 9 10 10 10 11 13 14 13 11 9 8 8 6 3 2 2 6 7 3 8 11 12 14 16 17 18 16 14 15 15 16 16 17 17 18
7 7 7 8 8 6 6 6 5 3 1 1 0 1 2 2 2 2 1 2 3 4 6 6 7 9 9 9 10 9 10 10 10 10 10 11 12 13 11 10 11 7 6 9 8 7 8 6 6 8 10 10 9 9 11 10 10 11 12 12 8 5 4 3 2 1 3 4 4 8 8 8 18 19 15 16 19 20 20 18 16 15 15 16 17 17 19 19
7 7 7 8 7 6 5 4 2 1 1 1 1 2 2 2 1 2 2 2 4 5 6 6 7 9 9 10 11 10 10 11 10 9 11 11 11 12 11 11 11 8 7 8 7 7 7 5 6 8 9 10 9 9 9 8 10 11 9 8 4 2 2 2 2 2 4 4 8 13 11 12 19 19 17 20 22 19 16 16 16 15 14 15 16 17 19 20
6 7 7 7 6 4 3 1 1 1 2 2 2 2 1 1 2 3 3 3 4 5 5 6 7 8 9 10 11 10 10 11 11 10 12 12 11 12 12 11 11 10 10 9 7 7 5 4 6 8 9 9 10 10 8 10 12 9 7 7 4 0 1 3 2 2 4 6 12 15 10 8 13 18 23 23 17 14 15 14 14 14 13 14 15 16 18 20
5 6 6 5 4 2 1 1 2 2 2 2 2 2 1 1 3 3 4 4 4 5 5 6 8 9 9 10 10 11 10 11 12 11 12 11 10 12 12 11 10 10 11 9 7 8 6 5 8 10 9 10 11 11 10 11 9 8 9 7 4 3 4 5 5 6 7 8 9 11 11 16 23 28 26 16 12 14 18 17 13 12 12 12 13 15 18 20
5 5 5 3 2 2 0 1 2 3 3 3 3 4 4 4 4 4 4 4 5 6 6 7 9 9 9 10 11 11 10 11 12 11 11 11 10 11 12 11 10 10 11 10 8 8 7 8 12 11 9 9 10 11 12 10 8 9 10 7 7 8 6 6 6 7 6 5 6 7 14 25 30 29 21 11 12 19 23 21 15 12 13 13 13 17 20 22
5 4 3 2 2 1 1 3 3 4 4 4 4 4 5 6 6 5 5 5 6 7 7 7 8 9 9 10 11 11 10 11 13 12 11 10 9 10 12 11 11 11 12 11 10 10 10 11 12 10 8 10 11 12 14 13 11 10 9 8 9 8 4 3 4 3 3 4 6 8 19 29 24 20 22 15 15 24 28 22 16 14 16 16 16 20 23 27
4 3 2 1 1 1 3 5 5 5 6 6 6 6 6 7 7 7 6 6 7 8 8 7 7 8 9 10 11 11 10 10 12 11 10 10 9 10 11 11 11 12 12 11 11 12 12 11 10 9 9 12 14 15 16 14 12 11 11 11 10 6 3 3 3 3 3 3 5 7 16 30 29 23 24 22 21 27 26 19 18 18 19 19 20 23 27 31
3 2 1 0 1 3 6 6 6 6 6 6 6 6 6 7 8 8 8 8 8 7 8 8 8 8 8 9 10 11 10 10 10 10 9 10 10 10 10 11 12 12 12 12 12 13 13 9 8 10 12 15 17 16 14 14 14 13 13 13 12 9 8 7 6 4 3 3 7 5 5 22 36 32 29 30 29 27 22 20 21 19 20 23 24 28 32 33
2 1 1 2 3 6 7 7 7 7 6 6 6 6 7 8 8 8 8 8 8 7 7 8 8 8 8 8 10 10 10 9 9 10 9 10 10 10 11 12 12 12 12 12 12 14 14 9 8 14 16 15 16 16 16 18 16 16 16 14 14 12 10 10 11 11 8 3 5 3 3 26 45 41 37 37 32 26 24 24 24 23 26 29 29 32 34 33
2 1 2 4 6 8 8 8 7 7 7 7 8 8 8 9 9 8 8 7 7 7 7 7 7 8 8 8 9 10 10 8 9 10 10 11 11 10 11 12 13 13 13 13 13 13 13 12 14 18 18 16 19 20 20 19 18 18 19 17 17 15 11 8 7 12 13 9 7 2 6 34 50 41 37 37 31 29 29 29 32 34 35 35 33 32 32 32
2 3 4 6 8 9 9 8 7 8 8 9 9 8 9 9 8 8 7 7 6 6 6 7 7 7 8 8 8 9 10 9 9 10 11 11 11 11 12 13 13 13 14 14 13 13 14 15 18 19 19 19 20 18 15 14 15 16 18 18 18 16 15 11 6 9 11 13 14 6 7 33 47 37 34 36 34 35 36 37 39 38 35 33 30 30 31 32
4 5 6 8 9 9 10 9 8 8 9 9 9 9 9 8 8 7 7 7 6 5 5 6 7 7 8 8 8 9 10 9 10 11 11 12 12 13 13 13 13 14 15 14 14 14 14 14 17 21 24 21 18 13 10 11 13 15 18 19 18 18 19 17 17 17 12 15 17 4 7 32 44 38 36 39 38 39 38 37 36 33 30 28 28 30 30 31
5 6 7 9 9 9 9 9 8 8 9 9 9 9 9 8 7 7 6 6 6 5 5 5 7 7 8 8 8 9 10 10 10 11 12 13 13 14 13 14 15 14 15 15 16 15 13 14 16 18 18 16 12 9 7 12 16 19 23 23 21 21 20 19 24 22 16 22 22 8 12 36 43 39 41 41 39 39 34 29 29 29 29 29 29 30 28 29
6 7 8 8 8 9 9 10 9 8 8 8 9 8 8 7 7 6 5 5 4 4 5 5 6 7 8 8 9 10 10 10 11 12 13 14 14 15 15 15 16 16 17 17 17 17 18 19 18 13 8 6 8 10 13 19 24 27 30 28 26 25 22 20 20 17 16 22 22 18 27 46 47 41 40 37 34 33 28 24 27 29 31 32 31 30 29 31
8 8 8 8 8 9 9 10 11 10 8 8 8 7 7 6 6 5 4 4 4 3 4 5 6 7 8 9 9 10 11 12 12 13 14 15 15 16 16 17 18 18 18 18 18 18 21 24 22 20 19 19 21 24 25 28 30 32 33 32 31 29 27 24 21 24 27 25 26 36 47 53 49 41 36 31 27 27 26 26 29 32 34 35 33 32 32 35
9 9 9 9 8 8 9 10 10 11 10 8 8 7 6 5 5 4 3 3 3 3 3 5 6 7 8 9 10 11 12 13 13 14 15 16 17 17 18 19 19 19 19 18 18 17 22 27 26 25 28 30 30 31 30 31 34 36 36 36 36 34 33 32 30 36 37 26 29 46 49 45 47 42 34 30 27 27 29 30 32 34 34 35 34 35 37 39
10 10 10 8 7 8 9 10 9 10 9 8 7 6 5 5 4 3 2 2 3 4 4 5 7 8 9 10 11 12 13 14 15 15 16 17 18 18 19 20 20 20 19 18 18 19 22 28 28 28 32 34 33 33 33 33 36 38 37 36 35 34 35 37 38 42 40 33 38 49 47 45 46 38 32 31 30 30 31 31 31 33 34 36 36 38 41 41
10 10 9 9 9 9 9 9 9 9 8 7 6 5 4 3 2 2 2 2 3 4 5 6 8 9 9 11 12 13 14 15 16 17 18 19 20 20 22 21 19 20 21 20 22 21 21 26 29 29 33 36 35 35 33 33 36 38 39 38 37 37 38 41 41 41 42 46 49 49 48 48 39 32 33 34 31 30 30 31 34 37 38 39 39 40 42 40
10 10 10 10 10 10 9 9 8 8 6 6 5 4 2 1 0 2 3 4 5 6 7 8 9 9 10 12 12 13 15 16 17 18 19 21 21 21 22 22 21 22 23 23 24 23 22 26 30 31 34 37 37 35 33 32 33 39 45 44 38 37 38 38 37 35 37 43 43 40 45 45 35 32 34 33 30 31 32 35 39 41 41 40 40 41 41 40
11 11 11 11 10 9 9 8 7 7 5 4 3 2 1 1 2 3 5 6 7 8 9 9 10 11 12 13 13 14 16 17 17 19 20 21 22 23 22 23 24 24 25 24 25 26 25 28 31 30 30 36 38 34 32 33 36 45 47 35 23 23 27 28 29 28 29 33 35 34 39 40 36 32 32 32 33 36 37 38 40 42 42 42 41 42 41 40
12 12 11 10 9 9 9 8 7 6 4 3 2 2 2 3 4 5 6 7 8 10 10 11 12 13 13 14 15 16 17 18 18 20 21 22 23 23 22 23 24 24 24 23 24 26 26 28 31 25 24 34 37 32 33 36 34 35 32 22 19 25 29 31 33 29 26 29 32 33 36 37 34 30 32 37 39 39 39 39 40 43 44 43 42 42 41 42
Wind_Direction
105 131 146 153 149 131 115 118 122 119 115 113 111 107 100 91 84 75 59 44 15 346 328 315 306 300 297 295 294 291 291 292 292 294 295 296 295 294 293 291 289 287 285 282 278 276 276 276 276 277 277 278 276 272 269 265 261 256 251 251 253 260 265 270 276 275 268 270 275 275 274 275 276 279 281 281 279 274 270 266 264 261 259 256 255 256 258 262
83 113 137 149 142 129 121 120 118 113 108 104 97 88 76 60 45 24 3 347 332 320 311 306 301 297 294 293 290 289 290 290 291 293 294 294 293 291 289 287 284 282 281 277 274 272 271 272 274 276 276 277 275 271 267 264 261 256 256 257 258 264 269 271 272 270 269 271 272 272 271 272 274 277 281 284 282 276 270 264 260 259 257 255 257 260 265 271
82 109 127 133 128 124 123 119 112 105 97 85 67 47 28 14 0 345 333 324 315 308 304 301 298 295 294 292 291 291 291 291 294 296 296 295 293 290 287 286 284 282 279 275 274 272 271 271 273 274 275 275 273 270 266 263 261 258 259 258 260 267 270 272 272 273 273 271 270 270 270 271 272 276 281 285 284 278 271 265 259 256 256 257 262 269 274 278
96 113 124 127 125 126 127 123 114 95 73 49 26 7 352 342 333 325 318 312 308 304 301 299 296 295 293 292 291 291 292 295 298 297 295 293 290 288 287 287 287 285 283 279 276 276 275 273 272 272 271 270 269 266 262 260 260 259 257 255 260 267 269 270 272 274 274 271 269 269 270 272 273 275 279 281 280 278 274 270 263 259 259 262 269 275 277 278
110 117 125 131 133 135 135 126 104 59 28 8 350 338 330 324 317 312 309 306 303 301 299 296 295 294 292 292 292 294 298 302 303 298 293 290 288 286 287 289 288 287 286 284 280 278 277 276 275 272 268 266 264 261 259 259 258 258 257 256 260 264 266 269 272 273 273 272 271 270 271 273 274 274 275 275 275 274 272 268 265 263 263 267 272 275 276 278
124 127 133 138 141 143 140 109 8 352 339 332 325 319 314 309 307 306 306 304 302 300 299 297 296 296 295 295 298 301 305 306 303 300 295 293 294 292 292 294 293 291 288 285 283 280 278 277 277 273 269 265 261 260 261 260 258 257 259 260 261 263 266 268 271 273 274 274 274 274 274 273 273 272 272 272 271 270 267 265 265 265 267 270 272 274 275 276
132 136 140 144 150 159 274 317 323 323 319 316 310 308 307 307 308 308 307 306 306 307 307 308 308 306 303 303 304 305 305 303 303 303 301 305 309 303 301 301 297 292 288 284 282 280 278 275 275 273 270 265 262 261 260 259 257 256 259 262 263 264 266 268 270 272 273 275 275 275 275 274 272 270 270 269 268 267 265 265 265 266 269 270 272 274 274 274
139 143 151 163 197 263 301 311 315 313 309 305 304 306 308 309 310 312 313 316 319 324 325 326 325 321 316 312 307 306 306 304 307 308 310 320 317 308 306 303 298 294 291 289 286 283 280 276 274 271 269 265 263 261 259 260 257 256 259 263 264 265 267 268 270 271 273 275 276 276 274 272 271 269 268 266 265 265 265 266 266 268 270 271 272 273 274 273
149 161 184 223 263 286 299 305 303 299 298 298 300 303 306 307 310 315 322 325 326 329 330 331 332 331 327 325 321 316 312 309 311 307 308 318 316 309 307 303 300 298 296 295 293 288 283 279 275 273 270 267 265 263 261 258 258 259 261 263 265 266 268 269 270 272 274 275 276 275 274 272 271 268 267 267 266 265 266 266 267 268 269 270 271 272 273 272
175 208 243 265 279 289 294 294 292 292 294 296 298 303 309 312 314 322 325 321 319 321 325 327 330 334 332 335 332 319 314 316 313 304 306 314 313 309 306 303 300 294 292 293 291 286 282 281 279 276 273 269 267 264 262 258 259 262 263 264 265 267 268 270 272 273 274 275 276 276 276 274 272 271 270 272 271 269 269 268 268 269 269 270 270 271 272 272
240 261 270 277 284 292 295 294 294 294 295 296 300 310 316 319 322 327 327 320 314 317 322 322 324 328 330 328 319 313 320 326 319 309 310 313 311 310 307 305 302 296 293 291 289 284 279 278 279 279 273 269 267 265 265 262 261 264 265 265 266 267 269 271 272 274 274 275 277 277 277 275 274 275 275 276 274 272 271 270 269 269 269 270 270 271 271 272
268 278 284 291 298 301 301 298 298 295 293 296 303 311 311 318 331 332 331 326 319 322 322 319 319 321 325 320 308 302 314 326 327 316 309 310 314 317 315 313 310 306 302 296 291 284 279 277 278 278 272 269 267 265 265 264 263 264 264 265 267 269 271 271 272 273 274 276 277 280 281 280 278 278 278 276 274 272 270 267 268 268 269 270 271 273 273 273
285 295 301 305 309 309 308 307 304 299 296 300 300 292 295 328 337 337 336 334 328 328 326 321 319 320 321 315 304 296 306 322 327 316 309 317 328 331 327 323 319 315 309 302 296 289 285 282 280 278 273 271 267 264 265 266 265 263 264 265 267 271 271 271 273 273 275 277 278 282 283 282 283 283 281 278 276 273 270 269 270 270 271 272 272 273 272 271
306 310 311 311 315 318 319 318 314 309 310 311 287 272 322 335 339 338 337 338 336 336 334 332 329 325 322 316 310 306 312 323 327 327 332 333 331 330 329 328 325 323 318 312 307 303 299 292 287 282 277 274 271 267 267 268 266 265 267 267 265 267 268 270 274 275 278 281 280 284 282 281 286 287 283 281 279 276 276 276 276 275 274 273 271 270 267 266
317 317 317 317 327 337 331 331 328 329 348 8 337 323 329 333 334 335 337 337 338 339 339 342 341 333 327 321 316 318 325 330 332 333 334 328 323 326 331 333 331 329 327 323 320 316 313 307 300 291 287 283 278 274 272 271 268 266 264 267 265 259 262 271 275 276 280 283 282 286 282 280 285 286 283 282 280 279 280 279 279 278 276 275 272 269 266 263
334 333 333 335 352 11 7 11 10 359 0 350 331 321 322 326 330 332 332 332 334 334 331 336 341 336 331 328 322 326 331 330 324 319 318 318 322 329 334 335 335 335 333 331 330 327 325 320 312 306 300 292 284 277 271 264 262 263 257 257 263 261 266 276 279 279 283 285 285 284 279 280 285 286 284 283 282 281 281 281 280 279 277 275 273 271 269 266
4 356 350 350 358 5 0 1 2 348 332 319 312 311 315 320 324 324 324 328 329 324 324 334 340 336 335 338 329 325 328 322 313 310 311 319 327 334 336 335 336 336 333 333 333 331 329 323 319 316 310 303 295 283 267 249 244 260 262 262 268 269 271 277 282 284 285 286 287 285 282 284 287 288 287 286 286 285 284 283 281 279 279 276 274 273 272 270
29 8 355 347 338 336 331 328 324 309 296 293 297 302 310 316 319 321 318 321 327 323 326 340 347 344 339 338 332 326 325 321 316 312 313 320 330 337 337 335 336 335 332 332 329 327 327 322 321 318 311 307 294 274 256 248 245 257 267 275 281 281 283 284 287 290 291 291 291 290 288 288 290 292 291 290 289 288 287 285 283 281 278 275 274 272 270 270
43 8 352 338 331 332 327 325 321 309 298 293 297 303 312 317 317 316 303 307 341 345 346 351 355 354 342 336 334 330 330 330 329 325 322 327 337 339 336 335 332 328 327 328 325 322 323 317 311 302 292 286 274 261 253 255 260 266 277 287 291 297 298 295 295 296 297 297 295 293 291 290 293 292 289 289 289 289 288 285 282 279 276 274 273 271 270 270
20 357 355 346 341 341 335 330 324 319 316 312 315 320 325 327 326 322 297 212 0 355 3 1 354 354 349 343 339 337 338 340 341 342 337 336 340 336 332 329 324 324 327 327 323 317 317 309 299 291 283 282 284 279 274 273 279 289 299 303 304 306 300 298 300 298 298 298 295 294 292 294 294 289 287 289 288 286 285 282 280 277 275 274 273 273 273 271
347 353 3 356 350 348 343 337 332 331 331 332 336 334 333 341 16 16 75 137 3 358 3 359 357 358 354 349 345 344 345 346 352 355 351 341 340 335 330 329 325 326 326 322 317 311 312 308 299 296 299 305 307 303 300 298 307 316 315 312 310 304 297 300 301 299 301 300 300 301 298 300 297 289 289 288 286 285 283 281 280 277 276 276 277 276 274 274
335 350 3 358 352 350 346 340 338 340 342 342 343 337 330 323 334 343 323 264 351 11 9 3 2 359 354 355 355 353 354 356 352 350 350 341 336 332 326 326 321 319 319 317 319 319 317 316 313 319 326 335 335 334 336 332 332 328 318 317 312 304 305 308 306 308 311 308 310 309 306 309 303 290 289 286 285 287 283 282 280 277 278 278 277 275 274 275
323 343 359 356 351 350 345 341 338 340 344 344 339 333 329 323 324 327 354 146 55 22 15 6 1 359 357 358 0 0 1 1 350 341 343 336 327 326 323 322 319 319 323 324 331 335 330 331 336 342 351 358 357 354 351 342 333 322 314 317 312 310 317 317 314 316 318 314 314 314 314 317 311 297 298 296 295 292 287 287 284 280 282 278 273 274 275 275
303 330 351 352 350 347 342 341 338 338 341 341 334 329 327 328 322 311 317 228 16 13 9 4 1 360 360 0 2 359 354 355 354 347 344 338 336 339 334 334 332 332 336 339 346 351 348 347 347 356 2 2 2 355 343 333 320 310 309 314 312 315 320 316 314 319 321 318 320 324 323 319 316 320 313 301 298 295 290 293 293 286 283 279 276 277 276 274
288 312 339 347 346 342 340 339 338 336 336 337 331 326 327 326 322 308 294 281 323 353 358 2 3 2 4 6 1 355 349 352 354 350 347 351 356 351 345 347 346 345 348 350 354 354 357 358 353 359 4 3 358 344 328 315 309 311 311 314 314 314 316 314 316 323 325 319 322 333 336 302 310 322 309 297 300 293 289 295 295 286 282 281 281 279 275 274
278 297 329 342 341 339 338 337 336 333 331 332 326 327 329 323 321 308 290 283 301 342 354 1 4 5 6 4 359 358 355 351 353 355 359 4 3 357 354 352 352 353 352 352 352 350 353 356 358 3 3 358 347 332 319 314 314 315 312 316 318 317 320 319 321 326 323 309 314 328 339 293 310 325 312 300 301 288 288 296 292 283 284 284 282 278 275 275
273 292 324 336 337 338 340 338 334 328 328 329 325 327 326 320 327 324 304 287 298 338 355 1 0 2 4 2 1 6 6 356 356 1 4 6 3 1 0 356 357 357 355 358 356 350 352 355 1 1 354 345 334 320 316 323 327 316 314 321 324 323 324 322 323 321 313 311 312 315 316 292 298 318 320 303 297 289 291 295 290 285 284 283 281 279 278 278
270 290 321 331 336 341 345 344 334 330 331 328 325 322 321 323 338 336 304 262 340 348 358 4 3 2 1 0 2 9 12 4 1 2 5 9 7 5 4 1 2 359 2 10 358 344 352 356 357 352 344 334 325 323 328 334 332 322 322 326 326 325 323 319 317 312 310 315 310 305 318 292 281 305 318 304 301 304 299 294 288 283 281 280 280 280 279 277
266 286 313 327 337 342 347 347 337 335 334 327 322 316 326 347 0 347 236 218 350 356 360 2 4 2 358 0 5 7 9 9 8 8 11 13 12 12 12 8 7 5 8 10 1 350 348 347 346 343 340 333 329 331 336 337 331 325 326 326 325 323 319 310 301 304 309 309 280 288 316 304 290 303 309 307 314 316 308 299 289 283 281 280 279 279 278 276
265 284 306 323 335 340 343 342 332 330 329 322 317 311 340 82 59 33 187 288 343 355 359 358 360 0 358 1 5 4 8 13 15 18 20 19 18 20 21 14 9 9 12 7 0 351 339 333 334 338 338 334 333 333 335 335 328 326 329 331 332 327 316 299 291 300 304 291 251 270 293 321 297 302 304 307 317 320 312 302 291 287 283 279 278 276 276 276
270 284 304 321 331 335 334 330 324 325 329 323 311 341 109 114 40 19 162 24 7 350 356 358 358 359 359 3 7 12 17 15 16 21 19 19 22 23 22 15 8 7 4 360 354 343 335 323 320 334 335 333 335 335 334 334 331 333 337 336 334 324 311 293 283 288 276 267 247 265 293 278 254 286 310 309 314 318 311 301 292 287 282 279 279 279 280 282
276 287 304 318 325 327 327 324 324 330 351 8 71 100 113 117 35 18 103 39 358 342 356 1 360 0 6 13 15 19 22 20 22 22 19 23 25 22 21 19 18 15 354 350 349 341 334 318 312 327 332 334 338 336 332 333 334 335 334 335 332 315 314 291 247 248 250 257 261 277 301 273 262 284 310 314 315 315 308 301 291 285 284 283 283 285 287 287
282 293 306 315 317 323 327 327 338 15 85 89 108 103 87 111 95 60 78 38 357 2 9 9 8 10 15 19 19 21 22 20 20 20 21 25 23 19 20 21 24 25 4 352 351 347 340 326 322 326 328 332 332 330 327 324 327 327 331 345 351 343 333 299 267 284 257 248 273 286 298 283 277 296 319 319 316 311 303 297 287 284 284 283 285 289 292 290
288 298 307 311 315 329 338 348 47 82 97 93 101 106 92 130 133 92 61 35 18 19 18 20 22 22 23 23 21 21 19 16 16 18 18 18 18 16 14 17 21 19 9 0 354 352 343 315 320 321 321 323 324 324 317 318 322 319 329 350 357 18 290 286 291 294 298 306 291 284 282 263 276 306 317 314 311 308 305 296 284 283 283 287 295 299 300 298
294 303 307 311 322 336 342 59 80 84 92 94 89 96 112 137 128 98 59 44 38 28 28 33 30 29 29 25 22 21 20 16 13 13 13 11 11 8 7 12 14 12 10 3 352 349 338 315 317 316 312 312 317 318 315 322 325 313 322 334 324 304 276 263 267 274 297 314 287 263 253 266 288 307 312 306 303 316 320 308 289 285 288 294 307 313 312 308
300 303 304 307 321 319 248 100 83 92 101 99 92 93 101 103 105 98 73 61 51 42 43 38 28 29 30 24 22 22 19 16 12 10 8 3 1 1 1 2 2 6 8 1 356 351 336 322 320 318 312 307 313 318 316 317 309 302 313 311 299 304 285 254 267 279 284 290 276 254 266 283 298 312 315 304 300 317 323 314 295 285 290 295 308 317 318 316
298 300 298 289 305 294 153 107 91 106 111 105 101 102 102 98 94 93 85 74 63 54 51 42 30 31 30 24 23 21 19 18 12 4 0 358 356 354 355 356 356 359 360 358 355 344 333 324 318 318 312 308 313 315 313 309 298 292 293 289 300 311 295 256 269 283 260 264 275 267 280 290 291 301 313 312 306 315 319 312 298 288 286 289 301 311 313 313
293 292 278 278 304 174 132 111 104 115 117 110 108 106 103 100 96 94 89 80 72 61 54 50 40 35 32 26 21 19 22 21 10 1 356 356 352 349 353 355 351 350 352 353 346 339 339 327 318 321 318 315 316 311 308 307 299 290 282 284 294 294 269 254 256 289 286 276 285 270 283 291 284 284 306 312 311 318 318 312 306 298 287 286 295 303 307 308
283 278 250 56 127 140 125 114 115 122 122 117 114 109 103 103 102 97 90 80 75 65 56 53 43 37 33 26 21 18 18 17 8 2 357 353 350 348 352 352 348 346 345 344 338 336 336 323 308 317 318 315 313 307 301 300 299 294 285 281 282 272 260 255 240 254 276 274 292 285 271 291 293 296 305 309 314 319 317 313 312 306 297 295 296 299 302 303
266 240 144 115 132 134 123 118 120 123 126 122 116 112 110 109 105 98 93 84 78 69 58 52 42 36 30 24 22 16 12 8 0 359 357 355 353 349 349 348 345 342 338 337 335 330 327 314 296 308 314 309 305 302 296 293 292 287 280 276 277 270 259 264 257 250 254 251 287 304 255 286 297 305 309 311 316 318 316 316 314 311 308 305 302 301 302 301
236 155 129 127 133 129 123 123 126 126 128 124 116 113 113 111 104 99 96 87 80 72 61 53 42 34 26 22 19 12 8 2 357 358 354 354 354 348 343 341 340 338 334 333 331 325 321 309 296 301 309 305 301 301 296 291 287 284 281 277 277 272 255 265 268 247 243 237 248 262 277 289 300 312 316 316 318 317 317 317 315 315 313 311 308 305 303 300
169 126 130 134 132 128 125 126 131 132 130 124 120 115 114 113 106 100 96 86 80 73 60 50 42 33 23 19 13 7 5 359 355 355 350 350 349 341 338 337 335 334 329 327 327 322 316 305 296 301 310 308 305 302 292 288 287 282 280 278 277 272 254 247 251 254 247 239 250 242 253 288 305 320 319 318 319 317 319 317 316 317 314 310 307 302 300 300
146 127 132 135 135 133 131 132 134 132 128 125 123 118 115 114 109 102 96 88 79 69 59 45 36 29 19 15 9 2 1 355 350 349 346 345 342 336 335 334 332 330 326 323 322 321 316 304 299 307 313 314 311 304 290 287 287 283 285 285 279 273 267 258 256 264 262 243 247 217 228 283 308 323 317 317 319 318 320 320 318 315 308 303 300 297 299 301
151 139 134 135 139 139 137 135 130 125 125 128 128 123 119 115 110 104 97 89 76 64 56 37 26 21 14 10 3 358 357 351 345 344 342 340 337 334 332 330 329 326 321 317 315 314 308 298 298 307 318 323 320 316 303 297 296 293 292 290 283 279 274 265 260 260 263 258 252 215 241 281 306 320 315 318 321 319 323 319 312 307 302 300 297 295 298 303
159 148 139 138 141 144 142 137 130 127 131 132 130 127 124 118 112 107 96 86 72 56 44 27 19 11 5 2 356 353 351 344 340 340 338 335 332 331 329 327 325 321 317 313 310 307 299 292 291 290 288 290 295 301 301 299 298 294 291 290 288 283 273 267 261 247 250 259 245 224 257 285 305 314 313 322 326 321 320 312 306 305 302 302 299 294 296 303
158 150 147 147 146 150 151 141 134 134 139 138 133 130 128 121 115 108 92 78 60 40 26 14 7 359 355 353 350 348 344 341 338 334 334 333 329 328 326 323 321 318 314 310 307 304 295 294 296 288 277 279 290 296 297 296 293 289 290 289 286 283 276 267 252 243 253 256 251 259 272 285 300 312 319 328 329 320 315 310 307 307 304 303 300 295 297 304
155 150 151 151 152 156 154 146 141 138 139 140 134 130 128 121 113 105 88 68 42 20 1 353 350 347 344 343 342 341 338 338 336 331 332 331 328 326 323 321 320 315 311 308 305 300 293 296 301 297 293 296 299 299 298 296 294 291 291 289 285 283 277 264 254 261 265 255 261 279 283 283 294 311 324 329 327 320 314 311 308 306 305 305 302 298 300 305
153 151 151 150 154 155 150 149 149 145 143 142 136 132 127 114 102 91 72 39 15 1 344 340 340 336 335 335 334 333 332 333 332 331 331 328 326 325 321 320 319 313 310 307 302 299 293 296 302 302 302 304 302 302 301 297 295 294 292 290 286 282 275 268 270 276 270 256 267 285 288 285 293 312 325 325 323 317 311 309 307 306 307 307 304 301 302 305
158 159 157 154 153 151 148 150 152 151 150 147 144 141 135 119 98 65 25 350 340 335 330 333 332 328 328 328 327 325 325 327 327 328 328 325 325 324 320 319 317 312 310 306 302 300 293 295 301 301 304 308 305 305 305 300 298 298 296 295 291 284 279 277 280 282 273 268 275 285 287 288 299 318 323 319 319 314 310 309 308 308 309 307 305 304 305 307
167 165 162 158 156 153 154 157 160 160 157 154 153 151 148 145 352 332 319 318 320 317 317 322 323 322 322 323 323 321 320 322 324 324 324 323 322 321 317 316 314 310 307 304 301 299 291 290 297 299 301 308 310 309 309 306 304 302 302 303 300 291 286 281 280 282 275 273 282 286 283 290 309 324 320 316 317 314 312 311 310 309 309 309 309 309 309 308
167 163 161 158 158 160 163 166 169 171 168 164 166 168 185 254 308 309 301 304 308 307 309 312 315 317 318 318 320 318 317 320 322 322 322 320 318 317 313 311 310 306 304 302 298 297 291 289 295 297 297 303 308 309 308 308 305 302 304 311 308 293 289 286 286 288 283 284 291 286 280 294 316 323 317 315 315 314 313 313 311 311 312 313 313 313 312 309
164 162 161 160 161 166 171 175 177 181 182 187 207 232 259 279 296 299 298 302 305 304 306 307 308 310 312 314 316 317 316 317 318 319 319 317 316 315 311 309 309 305 303 301 296 295 294 289 292 293 290 297 303 303 305 309 307 302 307 321 319 305 299 295 293 293 293 291 289 285 290 307 319 318 314 314 314 313 314 313 312 312 314 316 315 313 311 309
Height
3154 3155 3155 3155 3155 3156 3157 3158 3158 3159 3159 3159 3160 3160 3161 3161 3161 3162 3162 3162 3162 3162 3162 3162 3161 3161 3161 3160 3160 3160 3160 3159 3158 3158 3157 3157 3156 3156 3155 3155 3154 3154 3153 3153 3153 3153 3153 3153 3152 3152 3152 3152 3152 3151 3151 3151 3151 3151 3151 3151 3151 3150 3150 3151 3151 3151 3151 3150 3149 3149 3149 3148 3148 3148 3148 3148 3148 3148 3148 3148 3148 3147 3147 3147 3147 3147 3147 3147
3154 3155 3155 3156 3156 3156 3157 3158 3159 3159 3159 3160 3160 3161 3161 3161 3161 3162 3162 3162 3162 3161 3161 3161 3160 3160 3160 3159 3159 3159 3158 3158 3157 3157 3156 3156 3155 3154 3153 3153 3152 3152 3152 3152 3152 3152 3151 3151 3151 3150 3150 3150 3150 3150 3150 3150 3150 3150 3150 3150 3149 3149 3149 3149 3149 3149 3149 3148 3148 3148 3147 3147 3147 3147 3147 3147 3147 3146 3146 3146 3146 3146 3146 3146 3145 3145 3145 3145
3154 3155 3156 3156 3156 3157 3158 3158 3159 3159 3160 3160 3161 3161 3161 3161 3161 3161 3161 3161 3161 3160 3160 3159 3159 3159 3158 3158 3157 3157 3157 3156 3156 3155 3155 3154 3153 3152 3151 3151 3151 3151 3150 3150 3150 3150 3150 3150 3149 3149 3149 3149 3148 3149 3149 3148 3149 3148 3148 3148 3148 3147 3147 3147 3147 3147 3147 3147 3146 3146 3146 3146 3146 3146 3146 3145 3145 3145 3145 3145 3145 3144 3144 3144 3144 3144 3144 3144
3155 3155 3156 3156 3157 3158 3159 3159 3160 3160 3160 3161 3161 3161 3161 3161 3161 3160 3160 3160 3160 3159 3159 3158 3158 3157 3157 3156 3156 3155 3155 3155 3154 3154 3153 3152 3151 3150 3150 3150 3149 3149 3149 3148 3148 3148 3148 3148 3148 3148 3147 3147 3147 3147 3147 3147 3147 3147 3147 3147 3146 3145 3145 3145 3145 3145 3145 3145 3145 3145 3144 3144 3144 3144 3144 3144 3143 3143 3143 3143 3143 3143 3143 3143 3143 3143 3142 3142
3155 3155 3156 3157 3158 3159 3159 3160 3160 3160 3161 3161 3161 3160 3160 3160 3160 3159 3159 3159 3159 3158 3157 3157 3156 3156 3155 3155 3154 3153 3153 3153 3153 3152 3151 3151 3150 3149 3149 3148 3148 3147 3147 3147 3146 3146 3146 3146 3146 3146 3146 3145 3145 3145 3145 3145 3145 3145 3145 3144 3144 3144 3144 3143 3143 3143 3143 3143 3143 3143 3143 3143 3143 3142 3142 3142 3142 3142 3141 3141 3141 3141 3141 3141 3141 3141 3140 3140
3156 3156 3157 3158 3159 3159 3160 3160 3160 3160 3160 3160 3160 3160 3160 3159 3159 3159 3158 3158 3157 3156 3156 3155 3155 3154 3154 3153 3152 3152 3152 3152 3151 3151 3150 3150 3149 3148 3148 3147 3147 3146 3146 3145 3145 3145 3145 3145 3145 3144 3144 3144 3144 3144 3143 3144 3144 3143 3143 3142 3143 3142 3142 3142 3142 3142 3142 3142 3141 3141 3141 3141 3141 3140 3140 3140 3140 3140 3139 3139 3139 3139 3139 3139 3138 3138 3138 3138
3156 3157 3158 3159 3159 3160 3160 3160 3160 3160 3160 3160 3159 3159 3159 3158 3158 3157 3157 3156 3156 3155 3154 3154 3154 3153 3152 3152 3151 3151 3151 3151 3150 3150 3149 3148 3148 3147 3147 3146 3146 3145 3145 3144 3144 3144 3144 3144 3143 3143 3143 3143 3143 3142 3142 3142 3142 3142 3141 3141 3141 3141 3140 3140 3140 3140 3140 3139 3139 3139 3139 3138 3138 3138 3138 3138 3138 3137 3137 3137 3137 3137 3136 3136 3136 3136 3136 3136
3157 3158 3158 3159 3159 3160 3160 3160 3160 3160 3159 3159 3158 3158 3158 3157 3156 3156 3155 3155 3155 3154 3154 3153 3153 3152 3152 3151 3151 3151 3150 3150 3149 3149 3148 3148 3147 3146 3146 3145 3144 3144 3143 3143 3143 3143 3143 3142 3142 3142 3142 3142 3141 3141 3141 3141 3141 3140 3140 3139 3139 3139 3139 3139 3138 3138 3138 3137 3137 3137 3136 3136 3136 3136 3136 3135 3135 3135 3135 3135 3135 3134 3134 3134 3134 3133 3133 3133
3158 3158 3159 3159 3159 3160 3160 3160 3159 3159 3158 3158 3157 3157 3157 3156 3156 3155 3155 3154 3154 3154 3153 3153 3152 3152 3151 3151 3150 3150 3150 3149 3149 3148 3147 3147 3146 3145 3145 3144 3144 3143 3142 3142 3142 3142 3141 3141 3141 3141 3141 3140 3140 3140 3140 3140 3139 3139 3138 3138 3138 3138 3137 3137 3137 3136 3136 3135 3135 3134 3134 3134 3134 3134 3133 3133 3133 3133 3133 3133 3133 3132 3132 3131 3131 3130 3130 3130
3158 3159 3159 3160 3160 3160 3160 3159 3159 3158 3158 3157 3157 3156 3156 3155 3155 3155 3154 3154 3154 3153 3153 3152 3152 3151 3151 3151 3150 3150 3149 3149 3148 3147 3147 3146 3145 3145 3144 3143 3143 3142 3142 3141 3141 3141 3141 3140 3140 3140 3140 3139 3139 3139 3138 3138 3138 3137 3137 3137 3136 3136 3136 3135 3135 3135 3134 3134 3133 3132 3132 3132 3132 3131 3131 3131 3131 3131 3131 3130 3130 3129 3129 3129 3128 3128 3127 3127
3159 3159 3159 3160 3160 3160 3159 3158 3157 3157 3156 3155 3155 3155 3155 3155 3155 3154 3154 3154 3153 3153 3153 3152 3152 3151 3151 3150 3150 3149 3148 3148 3148 3146 3146 3145 3144 3144 3143 3142 3142 3141 3141 3140 3140 3140 3140 3139 3139 3139 3138 3138 3138 3137 3137 3137 3136 3136 3136 3135 3135 3134 3134 3133 3133 3133 3132 3132 3131 3130 3130 3129 3129 3128 3128 3128 3128 3128 3128 3128 3127 3126 3126 3126 3125 3125 3124 3124
3159 3159 3159 3159 3159 3158 3157 3156 3156 3155 3154 3154 3154 3154 3155 3155 3154 3154 3154 3153 3153 3152 3152 3151 3151 3151 3150 3149 3149 3148 3147 3147 3147 3146 3145 3144 3143 3143 3142 3141 3141 3140 3140 3140 3139 3139 3139 3138 3138 3138 3137 3137 3137 3136 3136 3135 3135 3135 3134 3134 3133 3133 3132 3132 3131 3131 3130 3130 3129 3129 3127 3126 3127 3126 3126 3126 3126 3126 3125 3125 3124 3124 3123 3123 3123 3122 3122 3121
3158 3158 3157 3157 3157 3157 3156 3155 3154 3154 3154 3154 3154 3154 3154 3154 3154 3153 3153 3152 3152 3152 3151 3151 3150 3150 3150 3149 3148 3148 3147 3146 3146 3145 3144 3143 3142 3142 3141 3141 3140 3140 3139 3139 3138 3138 3138 3137 3137 3137 3136 3136 3135 3135 3134 3134 3134 3133 3133 3133 3132 3132 3131 3130 3129 3129 3129 3128 3128 3127 3126 3124 3124 3124 3124 3124 3123 3123 3123 3122 3122 3122 3121 3121 3120 3120 3119 3119
3157 3157 3156 3156 3156 3156 3155 3154 3154 3153 3153 3154 3154 3154 3154 3154 3153 3153 3152 3152 3151 3151 3151 3150 3150 3150 3149 3148 3147 3147 3146 3145 3144 3144 3143 3142 3142 3141 3140 3140 3139 3139 3138 3138 3137 3137 3137 3136 3136 3135 3135 3135 3134 3134 3133 3133 3133 3132 3132 3131 3131 3131 3129 3128 3128 3127 3127 3127 3126 3126 3125 3123 3122 3122 3122 3121 3121 3120 3120 3120 3119 3119 3118 3118 3117 3117 3117 3116
3157 3156 3156 3156 3156 3155 3155 3155 3154 3154 3153 3153 3153 3153 3153 3153 3153 3152 3152 3151 3151 3151 3151 3150 3150 3149 3149 3148 3147 3146 3145 3144 3143 3142 3142 3142 3141 3140 3140 3139 3138 3138 3137 3137 3136 3136 3136 3135 3135 3134 3134 3134 3133 3133 3132 3132 3131 3131 3131 3130 3129 3130 3128 3127 3127 3126 3125 3125 3125 3124 3123 3121 3120 3120 3120 3119 3119 3118 3118 3117 3117 3116 3115 3115 3114 3114 3114 3114
3156 3156 3156 3155 3155 3155 3155 3155 3154 3154 3153 3153 3153 3153 3153 3153 3152 3152 3151 3151 3151 3151 3150 3150 3149 3149 3148 3147 3147 3146 3145 3144 3143 3142 3142 3141 3140 3140 3139 3138 3138 3137 3137 3136 3136 3135 3135 3134 3134 3134 3133 3133 3132 3132 3132 3131 3131 3130 3130 3129 3128 3128 3127 3126 3126 3125 3124 3123 3123 3122 3121 3119 3118 3118 3117 3117 3116 3115 3115 3114 3114 3113 3112 3112 3112 3111 3111 3111
3156 3156 3156 3155 3155 3155 3155 3155 3154 3154 3153 3153 3153 3153 3153 3152 3152 3152 3151 3151 3151 3151 3150 3150 3149 3149 3148 3147 3146 3145 3145 3144 3143 3142 3141 3140 3140 3139 3138 3138 3137 3137 3136 3135 3135 3134 3134 3133 3133 3133 3132 3132 3131 3131 3131 3131 3130 3129 3129 3128 3127 3127 3126 3126 3124 3123 3123 3122 3121 3120 3119 3117 3116 3115 3115 3114 3113 3113 3112 3112 3111 3110 3110 3109 3109 3109 3108 3108
3156 3156 3156 3156 3155 3155 3155 3154 3154 3154 3154 3154 3153 3153 3153 3152 3152 3152 3151 3151 3151 3151 3150 3150 3149 3148 3148 3147 3146 3145 3145 3144 3143 3142 3141 3140 3139 3139 3138 3137 3137 3136 3135 3135 3134 3134 3133 3133 3132 3132 3131 3131 3130 3130 3130 3130 3129 3128 3128 3127 3126 3125 3125 3124 3123 3122 3121 3120 3119 3118 3117 3115 3114 3113 3112 3111 3110 3110 3109 3109 3108 3107 3107 3106 3106 3106 3106 3105
3156 3156 3156 3156 3155 3155 3154 3154 3154 3154 3154 3153 3153 3153 3152 3152 3152 3152 3151 3151 3151 3151 3150 3150 3149 3148 3148 3147 3146 3145 3144 3143 3142 3141 3140 3140 3139 3138 3137 3137 3136 3136 3135 3134 3134 3133 3133 3132 3132 3131 3131 3130 3130 3129 3129 3128 3128 3127 3127 3126 3125 3125 3124 3122 3122 3120 3119 3118 3117 3116 3115 3113 3112 3111 3109 3108 3107 3106 3106 3105 3105 3104 3104 3103 3103 3103 3103 3102
3156 3156 3156 3155 3155 3155 3154 3154 3153 3153 3153 3152 3152 3152 3152 3152 3152 3151 3151 3151 3151 3151 3150 3150 3149 3148 3147 3146 3145 3144 3143 3143 3142 3141 3140 3139 3138 3138 3137 3136 3136 3135 3134 3134 3133 3133 3132 3132 3131 3130 3130 3129 3129 3128 3128 3127 3127 3126 3126 3125 3124 3124 3122 3121 3120 3119 3118 3116 3115 3114 3112 3111 3110 3108 3106 3105 3104 3104 3103 3102 3102 3101 3101 3100 3100 3100 3100 3100
3156 3156 3155 3155 3154 3154 3153 3153 3153 3152 3152 3151 3151 3151 3151 3151 3151 3151 3151 3151 3151 3150 3150 3149 3148 3148 3147 3146 3145 3144 3143 3142 3141 3141 3140 3139 3138 3137 3137 3136 3135 3135 3134 3133 3133 3132 3131 3131 3130 3129 3129 3128 3128 3127 3127 3126 3126 3125 3125 3124 3123 3122 3121 3120 3119 3117 3116 3115 3113 3112 3110 3108 3107 3105 3103 3103 3102 3101 3100 3099 3099 3098 3098 3098 3097 3097 3097 3097
3155 3155 3155 3154 3154 3153 3152 3152 3151 3151 3151 3151 3151 3151 3151 3151 3151 3151 3150 3151 3150 3150 3149 3148 3148 3147 3146 3146 3145 3144 3143 3142 3141 3140 3139 3139 3138 3137 3136 3136 3135 3134 3133 3133 3132 3131 3130 3129 3129 3129 3128 3128 3127 3127 3126 3125 3125 3124 3124 3123 3122 3121 3120 3118 3117 3116 3115 3113 3111 3109 3106 3105 3104 3102 3101 3100 3099 3099 3098 3097 3097 3096 3096 3095 3095 3095 3094 3094
3155 3155 3154 3154 3153 3153 3152 3151 3151 3150 3150 3150 3150 3150 3150 3150 3150 3150 3150 3150 3150 3150 3149 3148 3147 3147 3146 3145 3144 3144 3143 3142 3141 3140 3139 3139 3138 3137 3136 3135 3134 3133 3133 3132 3131 3131 3130 3129 3128 3128 3127 3127 3126 3126 3125 3124 3124 3123 3123 3123 3122 3120 3119 3118 3116 3114 3114 3112 3109 3107 3104 3101 3100 3099 3099 3098 3097 3097 3096 3095 3095 3094 3093 3093 3093 3092 3092 3092
3154 3154 3154 3154 3153 3153 3152 3151 3151 3150 3150 3150 3150 3150 3150 3150 3150 3150 3150 3150 3150 3149 3149 3148 3148 3147 3146 3145 3144 3143 3143 3142 3141 3140 3139 3138 3137 3136 3135 3134 3133 3132 3132 3131 3130 3130 3129 3128 3128 3127 3127 3126 3126 3125 3124 3124 3124 3123 3122 3122 3121 3119 3118 3117 3115 3113 3112 3110 3109 3106 3102 3098 3098 3098 3097 3096 3095 3095 3094 3093 3093 3092 3092 3091 3091 3090 3090 3090
3154 3154 3154 3154 3153 3153 3152 3151 3151 3150 3150 3150 3150 3150 3150 3150 3149 3149 3150 3150 3150 3149 3149 3148 3147 3147 3146 3145 3144 3143 3142 3141 3140 3139 3138 3137 3136 3135 3134 3133 3132 3132 3131 3130 3129 3129 3128 3128 3127 3127 3126 3126 3126 3125 3124 3124 3124 3122 3121 3121 3120 3118 3117 3116 3115 3113 3112 3110 3108 3107 3104 3099 3097 3097 3095 3094 3094 3093 3092 3091 3091 3090 3090 3089 3089 3088 3088 3088
3154 3154 3154 3154 3153 3153 3152 3151 3151 3150 3150 3150 3149 3149 3149 3149 3149 3149 3149 3150 3150 3149 3149 3148 3147 3146 3146 3145 3144 3143 3141 3140 3139 3138 3137 3136 3135 3134 3133 3132 3132 3131 3130 3129 3129 3128 3128 3127 3127 3126 3126 3125 3125 3124 3124 3123 3123 3122 3121 3119 3118 3117 3116 3115 3114 3113 3112 3110 3108 3108 3107 3101 3096 3095 3094 3093 3092 3091 3090 3090 3089 3089 3088 3088 3087 3087 3086 3086
3154 3154 3154 3153 3153 3152 3151 3151 3150 3150 3150 3149 3149 3149 3149 3149 3149 3149 3149 3149 3149 3149 3149 3148 3147 3146 3145 3144 3143 3142 3141 3140 3139 3137 3136 3135 3135 3134 3133 3132 3131 3130 3130 3129 3129 3128 3128 3127 3126 3126 3125 3125 3125 3124 3123 3122 3122 3121 3120 3119 3117 3116 3115 3114 3113 3113 3111 3110 3108 3107 3108 3104 3097 3093 3093 3091 3090 3090 3088 3088 3087 3087 3086 3086 3085 3085 3084 3084
3154 3154 3153 3153 3152 3151 3151 3150 3150 3150 3149 3149 3149 3149 3149 3149 3148 3149 3149 3149 3149 3149 3149 3148 3147 3146 3145 3144 3143 3141 3141 3140 3139 3137 3136 3135 3135 3134 3133 3132 3131 3130 3129 3129 3129 3128 3127 3127 3126 3126 3126 3125 3124 3124 3123 3122 3121 3120 3119 3118 3116 3115 3114 3113 3112 3112 3110 3109 3108 3106 3106 3104 3097 3091 3091 3089 3088 3088 3087 3086 3086 3085 3085 3084 3084 3083 3082 3082
3153 3153 3153 3153 3152 3151 3150 3150 3150 3150 3149 3149 3149 3148 3148 3148 3148 3149 3149 3149 3149 3149 3148 3148 3147 3146 3145 3143 3142 3141 3141 3140 3139 3138 3137 3136 3135 3134 3133 3132 3131 3130 3129 3129 3129 3128 3127 3127 3126 3126 3126 3125 3124 3123 3122 3121 3120 3119 3118 3117 3116 3114 3113 3112 3112 3111 3110 3109 3107 3105 3105 3105 3096 3089 3089 3088 3086 3086 3085 3084 3084 3083 3082 3082 3081 3081 3080 3079
3153 3153 3153 3152 3151 3151 3150 3150 3150 3149 3149 3149 3148 3148 3148 3148 3148 3149 3148 3149 3149 3149 3148 3147 3147 3146 3145 3143 3143 3142 3141 3140 3139 3138 3137 3136 3135 3134 3133 3132 3131 3130 3129 3129 3128 3128 3127 3127 3126 3125 3125 3124 3123 3122 3121 3121 3119 3118 3117 3116 3115 3113 3111 3111 3110 3110 3110 3107 3106 3105 3105 3106 3099 3089 3087 3087 3085 3084 3083 3082 3082 3081 3080 3079 3079 3078 3077 3076
3152 3153 3152 3152 3151 3150 3150 3150 3149 3149 3148 3148 3148 3148 3148 3148 3148 3148 3148 3149 3149 3148 3148 3147 3147 3146 3145 3144 3143 3142 3141 3140 3139 3138 3137 3136 3135 3133 3132 3132 3131 3130 3129 3129 3128 3128 3127 3126 3126 3125 3124 3123 3122 3122 3121 3120 3119 3118 3117 3115 3114 3113 3111 3110 3109 3110 3109 3105 3104 3104 3103 3106 3100 3088 3085 3085 3083 3082 3081 3080 3080 3079 3078 3077 3076 3075 3075 3074
3152 3152 3151 3151 3150 3150 3150 3149 3149 3148 3148 3148 3148 3148 3148 3148 3148 3148 3148 3149 3148 3148 3148 3147 3146 3146 3145 3144 3143 3142 3141 3140 3139 3138 3137 3136 3135 3134 3133 3132 3131 3130 3130 3129 3129 3128 3127 3126 3125 3125 3124 3123 3122 3121 3120 3119 3118 3118 3117 3116 3115 3113 3111 3110 3108 3108 3107 3104 3103 3103 3103 3103 3094 3085 3083 3083 3081 3080 3079 3078 3077 3076 3075 3074 3073 3073 3072 3072
3151 3151 3151 3151 3150 3150 3149 3149 3148 3148 3148 3148 3148 3148 3148 3148 3148 3148 3148 3148 3148 3148 3147 3147 3146 3145 3144 3144 3143 3142 3141 3140 3139 3138 3137 3136 3135 3134 3134 3132 3132 3131 3130 3129 3128 3128 3126 3125 3125 3124 3123 3122 3121 3121 3120 3119 3118 3117 3117 3116 3115 3114 3114 3111 3108 3107 3105 3103 3103 3103 3104 3097 3085 3081 3082 3080 3079 3078 3076 3075 3074 3073 3073 3072 3071 3071 3070 3069
3151 3151 3150 3150 3149 3149 3148 3148 3148 3147 3148 3148 3148 3148 3148 3148 3148 3148 3148 3148 3148 3148 3147 3147 3146 3145 3144 3144 3143 3142 3141 3140 3139 3138 3137 3136 3135 3135 3134 3132 3132 3131 3130 3129 3128 3127 3126 3125 3124 3123 3122 3121 3121 3120 3120 3119 3118 3116 3116 3116 3115 3115 3115 3112 3109 3107 3104 3103 3102 3101 3100 3091 3081 3079 3079 3078 3077 3076 3074 3073 3072 3071 3070 3070 3069 3068 3067 3066
3150 3150 3150 3149 3149 3148 3148 3148 3147 3147 3147 3148 3148 3148 3148 3147 3147 3148 3148 3148 3148 3147 3147 3147 3146 3145 3145 3144 3143 3142 3141 3140 3139 3138 3137 3136 3136 3135 3134 3132 3131 3131 3130 3129 3128 3127 3126 3124 3124 3123 3122 3121 3120 3119 3119 3118 3117 3116 3115 3115 3115 3115 3115 3113 3111 3109 3108 3106 3101 3096 3091 3084 3079 3077 3076 3076 3074 3073 3072 3070 3069 3069 3067 3067 3066 3065 3064 3063
3150 3149 3149 3149 3148 3148 3148 3147 3147 3147 3147 3147 3148 3148 3147 3147 3147 3147 3148 3148 3147 3147 3147 3146 3146 3145 3144 3144 3143 3142 3141 3140 3139 3139 3138 3137 3136 3135 3134 3133 3131 3131 3130 3129 3128 3127 3125 3124 3122 3122 3121 3120 3119 3119 3118 3118 3117 3116 3115 3115 3114 3113 3113 3112 3111 3109 3110 3106 3097 3090 3085 3079 3077 3074 3072 3073 3072 3070 3070 3068 3066 3066 3065 3064 3063 3061 3061 3060
3149 3149 3148 3148 3148 3147 3147 3147 3147 3147 3147 3148 3148 3148 3147 3147 3147 3147 3148 3147 3147 3147 3146 3146 3146 3145 3144 3144 3143 3142 3141 3140 3139 3139 3138 3137 3136 3135 3134 3133 3131 3131 3130 3129 3128 3127 3126 3123 3121 3121 3120 3119 3119 3118 3116 3116 3116 3115 3114 3113 3112 3112 3111 3112 3111 3108 3108 3103 3093 3088 3083 3077 3075 3073 3069 3070 3070 3068 3067 3065 3064 3064 3062 3061 3060 3058 3057 3056
3148 3148 3148 3147 3147 3147 3147 3147 3147 3147 3147 3148 3148 3148 3147 3147 3147 3147 3148 3147 3147 3147 3147 3146 3146 3145 3145 3144 3143 3142 3141 3140 3139 3139 3138 3136 3136 3134 3133 3132 3131 3130 3129 3128 3127 3126 3125 3123 3120 3119 3119 3118 3117 3116 3115 3114 3114 3113 3112 3112 3112 3112 3111 3111 3110 3107 3105 3102 3093 3087 3083 3074 3069 3068 3067 3067 3068 3066 3064 3063 3062 3061 3060 3059 3057 3056 3054 3052
3148 3148 3147 3147 3146 3146 3146 3147 3147 3147 3148 3148 3148 3148 3148 3147 3148 3148 3148 3147 3147 3147 3147 3146 3146 3145 3145 3144 3143 3142 3141 3140 3139 3138 3137 3136 3135 3134 3133 3132 3131 3129 3128 3128 3126 3125 3125 3123 3120 3118 3118 3117 3115 3114 3114 3112 3111 3111 3110 3110 3110 3110 3110 3109 3109 3107 3105 3102 3094 3088 3083 3071 3062 3063 3064 3064 3064 3063 3062 3061 3060 3059 3058 3057 3055 3053 3051 3049
3147 3147 3146 3146 3146 3146 3146 3147 3147 3147 3148 3148 3148 3148 3148 3148 3148 3148 3148 3148 3147 3147 3147 3146 3146 3145 3144 3144 3143 3142 3141 3140 3139 3138 3137 3135 3134 3133 3132 3131 3130 3129 3127 3127 3126 3124 3124 3123 3120 3117 3116 3116 3114 3113 3112 3110 3110 3109 3108 3108 3108 3107 3108 3106 3105 3104 3103 3102 3097 3092 3083 3065 3056 3060 3061 3061 3061 3060 3059 3058 3057 3056 3055 3053 3051 3049 3047 3044
3147 3146 3146 3146 3146 3146 3147 3147 3147 3148 3148 3148 3148 3148 3148 3148 3148 3148 3148 3148 3147 3147 3147 3146 3145 3145 3144 3143 3142 3141 3140 3139 3138 3137 3136 3135 3134 3132 3131 3130 3129 3128 3127 3126 3125 3124 3123 3121 3119 3116 3115 3114 3112 3111 3109 3108 3108 3106 3106 3106 3105 3105 3106 3105 3102 3100 3100 3099 3095 3094 3084 3060 3051 3058 3059 3058 3059 3057 3056 3055 3053 3052 3050 3048 3046 3043 3041 3039
3146 3146 3146 3146 3146 3146 3147 3147 3148 3148 3148 3148 3148 3148 3148 3148 3148 3148 3148 3148 3147 3147 3147 3146 3145 3145 3144 3143 3142 3141 3140 3139 3138 3137 3135 3134 3133 3132 3131 3129 3128 3127 3126 3125 3124 3123 3122 3120 3117 3114 3113 3112 3110 3108 3107 3106 3105 3104 3103 3103 3102 3103 3103 3103 3100 3096 3096 3095 3091 3095 3087 3058 3047 3056 3056 3054 3055 3054 3052 3051 3049 3047 3045 3043 3041 3038 3036 3034
3146 3146 3146 3146 3146 3147 3147 3147 3148 3148 3148 3148 3148 3148 3148 3148 3148 3148 3148 3148 3147 3147 3146 3146 3145 3144 3143 3142 3141 3140 3139 3138 3137 3136 3135 3134 3132 3131 3130 3128 3127 3126 3125 3123 3122 3122 3120 3118 3115 3112 3110 3108 3107 3106 3105 3104 3103 3102 3101 3100 3100 3099 3098 3099 3098 3094 3094 3090 3087 3093 3082 3052 3044 3053 3052 3051 3052 3050 3049 3047 3044 3043 3041 3039 3037 3034 3032 3030
3145 3146 3146 3146 3147 3147 3147 3148 3148 3148 3148 3148 3148 3148 3148 3148 3148 3148 3148 3147 3147 3147 3146 3145 3145 3144 3143 3142 3141 3140 3139 3137 3136 3135 3134 3133 3131 3130 3129 3127 3126 3125 3124 3122 3121 3121 3119 3117 3115 3112 3108 3106 3104 3103 3103 3102 3101 3099 3097 3097 3096 3095 3096 3095 3093 3093 3090 3081 3081 3086 3069 3045 3044 3050 3047 3048 3048 3045 3046 3044 3040 3038 3036 3034 3033 3030 3028 3026
3146 3146 3146 3147 3147 3148 3148 3148 3148 3148 3149 3149 3149 3149 3149 3148 3148 3148 3148 3147 3147 3146 3145 3145 3144 3143 3142 3141 3140 3139 3138 3137 3135 3134 3133 3131 3130 3129 3127 3126 3125 3123 3122 3121 3119 3119 3117 3115 3114 3113 3111 3108 3103 3101 3101 3099 3098 3096 3093 3093 3092 3092 3093 3092 3091 3091 3085 3074 3075 3074 3055 3039 3043 3047 3045 3046 3045 3042 3041 3040 3037 3034 3032 3030 3028 3026 3024 3022
3146 3146 3147 3147 3147 3148 3148 3148 3148 3148 3149 3149 3149 3149 3149 3149 3148 3148 3147 3147 3146 3146 3145 3144 3143 3142 3141 3140 3139 3138 3137 3136 3135 3133 3132 3130 3129 3127 3126 3124 3123 3121 3120 3119 3118 3116 3114 3111 3111 3111 3108 3105 3102 3100 3099 3097 3094 3091 3089 3088 3088 3088 3087 3088 3088 3083 3075 3071 3066 3056 3046 3040 3039 3041 3043 3043 3042 3039 3037 3035 3033 3030 3027 3025 3023 3021 3019 3017
3146 3146 3147 3147 3148 3148 3148 3149 3148 3148 3149 3149 3149 3149 3149 3149 3148 3148 3147 3147 3146 3145 3144 3143 3143 3142 3140 3139 3138 3137 3136 3135 3133 3132 3130 3129 3127 3126 3124 3123 3121 3120 3118 3117 3116 3114 3111 3107 3107 3106 3102 3099 3098 3096 3095 3093 3089 3086 3085 3084 3083 3083 3082 3082 3079 3071 3069 3070 3057 3043 3044 3044 3036 3036 3039 3038 3037 3035 3032 3030 3028 3025 3022 3020 3018 3016 3014 3012
3146 3147 3147 3147 3148 3148 3148 3149 3149 3149 3149 3149 3149 3149 3149 3148 3148 3147 3147 3146 3145 3145 3144 3143 3142 3141 3140 3139 3137 3136 3135 3133 3132 3130 3129 3127 3126 3124 3122 3121 3119 3117 3116 3115 3113 3112 3109 3104 3103 3102 3098 3095 3094 3093 3091 3089 3085 3081 3079 3078 3077 3077 3075 3072 3068 3064 3066 3063 3048 3039 3043 3042 3034 3034 3035 3033 3033 3030 3027 3026 3023 3020 3018 3016 3013 3011 3009 3007
3146 3147 3147 3148 3148 3148 3149 3149 3149 3149 3149 3149 3149 3149 3148 3148 3147 3147 3146 3145 3145 3144 3143 3142 3141 3140 3139 3138 3136 3135 3133 3132 3130 3129 3127 3125 3124 3122 3120 3118 3117 3115 3114 3112 3110 3110 3107 3102 3099 3098 3094 3091 3090 3089 3087 3085 3080 3075 3073 3073 3071 3069 3067 3064 3060 3060 3060 3052 3042 3041 3040 3034 3032 3033 3031 3029 3029 3025 3023 3021 3019 3016 3014 3011 3009 3006 3003 3002
3146 3147 3147 3147 3148 3148 3149 3149 3149 3150 3149 3149 3149 3148 3148 3147 3147 3146 3146 3145 3144 3143 3142 3141 3140 3139 3137 3136 3135 3134 3132 3131 3129 3127 3125 3124 3122 3120 3118 3116 3115 3113 3111 3110 3108 3107 3105 3100 3097 3096 3092 3086 3085 3085 3083 3080 3076 3070 3066 3065 3065 3062 3059 3057 3055 3054 3053 3045 3040 3040 3036 3028 3029 3031 3027 3024 3024 3021 3019 3017 3014 3012 3009 3006 3004 3001 2998 2996
3146 3147 3147 3147 3148 3148 3149 3149 3149 3149 3149 3149 3148 3148 3147 3147 3146 3145 3145 3144 3143 3142 3141 3140 3139 3138 3136 3135 3134 3132 3130 3129 3127 3125 3124 3122 3120 3118 3116 3114 3112 3110 3108 3107 3105 3103 3102 3098 3094 3094 3090 3083 3081 3081 3079 3076 3073 3065 3060 3059 3059 3057 3054 3052 3050 3049 3047 3041 3038 3037 3033 3026 3026 3026 3023 3020 3019 3017 3014 3012 3009 3006 3004 3001 2998 2995 2992 2989
3146 3147 3147 3147 3148 3148 3149 3149 3149 3149 3149 3148 3148 3147 3147 3146 3145 3145 3144 3143 3142 3141 3140 3139 3137 3136 3135 3133 3132 3131 3129 3127 3126 3124 3122 3120 3118 3116 3114 3112 3110 3108 3105 3104 3102 3100 3099 3095 3093 3094 3089 3081 3078 3078 3075 3074 3069 3059 3054 3055 3054 3052 3050 3047 3045 3044 3042 3039 3036 3033 3028 3025 3024 3023 3019 3016 3015 3012 3010 3007 3005 3001 2998 2996 2992 2989 2986 2983